DW2973 Weather Reports


time (UTC)temp
C
wind
direction
speed
KPH
gust
KPH
rain 1hr
cm
rain 24hr
cm
rain mn
cm
humidity
%
barometer
mb
20260906041523 13 323 0.0 0.0 0.00 0.00 0.03 84 1016.6
20260906040031 13 248 0.0 0.0 0.00 0.00 0.03 84 1016.3
20260906034526 13 348 0.0 0.0 0.00 0.00 0.03 84 1016.2
20260906033017 13 318 0.0 0.0 0.00 0.00 0.03 83 1015.8
20260906031517 13 18 0.0 0.0 0.00 0.00 0.03 83 1015.9
20260906030014 13 327 0.0 0.0 0.00 0.00 0.03 83 1015.5
20260906024516 14 303 0.0 0.0 0.00 0.00 0.03 83 1015.3
20260906023011 14 275 1.6 0.0 0.00 0.00 0.03 83 1015.2
20260906021511 14 15 0.0 0.0 0.00 0.00 0.03 83 1015.1
20260906020017 14 328 1.6 0.0 0.00 0.00 0.03 83 1014.8
20260906014510 14 292 1.6 0.0 0.00 0.00 0.00 83 1014.9
20260906013007 14 317 1.6 0.0 0.00 0.00 0.00 83 1014.7
20260906011507 14 281 0.0 0.0 0.00 0.00 0.00 83 1014.6
20260906010006 14 355 1.6 0.0 0.00 0.00 0.00 83 1014.5
20260906004504 14 246 1.6 0.0 0.00 0.00 0.00 83 1014.3
20260906003003 14 238 1.6 0.0 0.00 0.00 0.00 83 1014.0
20260906001501 14 259 1.6 0.0 0.00 0.00 0.00 83 1013.8
20260906000108 14 253 0.0 0.0 0.00 0.00 0.00 82 1013.6
20260905234620 14 257 1.6 0.0 0.00 0.00 0.00 82 1013.5
20260905233055 15 246 0.0 0.0 0.00 0.00 0.00 81 1013.2
20260905231555 15 286 1.6 0.0 0.00 0.00 0.00 81 1013.1
20260905224552 15 307 1.6 0.0 0.00 0.00 0.00 80 1012.9
20260905223052 15 232 1.6 0.0 0.00 0.00 0.00 80 1012.6
20260905221551 15 28 1.6 0.0 0.00 0.00 0.00 80 1012.4
20260905220045 15 248 0.0 0.0 0.00 0.00 0.00 80 1012.2
20260905214543 15 340 1.6 0.0 0.00 0.00 0.08 80 1012.0
20260905213041 15 277 1.6 0.0 0.00 0.00 0.08 79 1011.6
20260905211541 15 253 1.6 0.0 0.00 0.00 0.08 79 1011.7
20260905210053 15 279 1.6 0.0 0.00 0.00 0.08 79 1011.3
20260905204539 15 226 1.6 0.0 0.00 0.00 0.08 79 1011.1
20260905203051 15 236 3.2 0.0 0.00 0.00 0.08 79 1011.0
20260905201537 15 246 1.6 0.0 0.00 0.00 0.08 80 1010.8
20260905200036 15 271 1.6 0.0 0.00 0.00 0.08 79 1010.7
20260905194532 15 283 3.2 0.0 0.00 0.00 0.08 79 1010.5
20260905193034 15 289 1.6 0.0 0.00 0.00 0.08 79 1010.4
20260905191535 15 279 3.2 0.0 0.00 0.00 0.08 79 1010.1
20260905190029 15 253 3.2 0.0 0.00 0.00 0.08 79 1010.1
20260905184528 15 264 1.6 0.0 0.00 0.00 0.08 79 1009.9
20260905183025 15 286 3.2 0.0 0.00 0.00 0.08 79 1009.8
20260905181527 15 298 3.2 0.0 0.00 0.00 0.05 78 1009.6
20260905180023 15 265 1.6 0.0 0.00 0.00 0.05 78 1009.5
20260905174523 15 233 3.2 0.0 0.00 0.00 0.05 76 1009.0
20260905173021 16 267 1.6 0.0 0.00 0.00 0.05 74 1008.9
20260905171528 16 219 1.6 0.0 0.00 0.00 0.05 74 1008.7
20260905170022 16 219 1.6 0.0 0.00 0.00 0.05 73 1008.7
20260905164517 16 222 3.2 0.0 0.00 0.00 0.05 74 1008.6
20260905163021 16 189 1.6 0.0 0.00 0.00 0.05 73 1008.5
20260905161514 17 281 1.6 0.0 0.00 0.00 0.05 72 1008.2
20260905160013 17 166 1.6 0.0 0.00 0.00 0.05 71 1008.0
20260905154512 17 225 3.2 0.0 0.00 0.00 0.05 71 1007.9
20260905153014 17 220 3.2 0.0 0.00 0.00 0.05 73 1007.8
20260905151511 17 274 1.6 0.0 0.00 0.00 0.05 71 1007.7
20260905150009 18 223 3.2 0.0 0.00 0.00 0.05 70 1007.6
20260905144506 18 205 3.2 0.0 0.00 0.00 0.05 69 1007.3
20260905143006 18 296 3.2 0.0 0.00 0.00 0.05 71 1007.3
20260905141506 18 227 3.2 0.0 0.00 0.00 0.05 73 1007.2
20260905140006 18 237 1.6 0.0 0.00 0.00 0.05 73 1007.2
20260905134505 17 259 1.6 0.0 0.00 0.00 0.05 74 1007.1
20260905133006 17 259 1.6 0.0 0.00 0.00 0.05 78 1007.0
20260905131506 17 232 1.6 0.0 0.00 0.00 0.05 75 1006.9
20260905130003 18 234 3.2 0.0 0.00 0.00 0.05 71 1007.0
20260905124600 18 260 3.2 0.0 0.00 0.00 0.05 73 1006.7
20260905123101 18 211 1.6 0.0 0.00 0.00 0.05 75 1006.6
20260905121557 18 233 1.6 0.0 0.00 0.00 0.05 74 1006.3
20260905120057 18 240 3.2 0.0 0.00 0.00 0.05 74 1006.3
20260905114605 18 246 3.2 0.0 0.00 0.00 0.05 75 1006.1
20260905113052 18 237 1.6 0.0 0.00 0.00 0.05 77 1006.1
20260905111622 17 237 1.6 0.0 0.00 0.00 0.05 76 1005.9
20260905110056 17 265 1.6 0.0 0.00 0.00 0.05 77 1005.8
20260905104608 17 234 3.2 0.0 0.00 0.00 0.05 74 1005.7
20260905103048 17 250 1.6 0.0 0.00 0.00 0.05 75 1005.7
20260905101551 17 236 1.6 0.0 0.00 0.00 0.05 75 1005.4
20260905100046 17 277 3.2 0.0 0.00 0.00 0.05 76 1005.4
20260905094641 17 231 1.6 0.0 0.00 0.00 0.05 76 1005.4
20260905093042 17 232 4.8 0.0 0.00 0.00 0.05 73 1005.3
20260905091547 17 277 1.6 0.0 0.00 0.00 0.05 74 1005.0
20260905090040 17 282 1.6 0.0 0.00 0.00 0.05 77 1005.0
20260905084549 16 246 3.2 0.0 0.00 0.00 0.05 79 1004.9
20260905083033 16 210 3.2 0.0 0.00 0.00 0.05 79 1004.7
20260905081532 16 209 3.2 0.0 0.00 0.00 0.05 80 1004.6
20260905080031 16 227 1.6 0.0 0.00 0.00 0.05 81 1004.6
20260905074529 16 242 1.6 0.0 0.00 0.00 0.05 82 1004.3
20260905073026 15 229 1.6 0.0 0.00 0.00 0.05 83 1004.3
20260905071526 15 222 1.6 0.0 0.00 0.00 0.05 83 1004.3
20260905070024 15 215 1.6 0.0 0.00 0.00 0.05 83 1004.2
20260905064522 15 234 1.6 0.0 0.00 0.00 0.05 84 1004.1
20260905063021 15 215 1.6 0.0 0.00 0.00 0.05 85 1004.1
20260905061528 15 243 1.6 0.0 0.00 0.00 0.05 85 1004.0
20260905060027 14 230 0.0 0.0 0.00 0.00 0.05 86 1003.7
20260905054522 14 234 1.6 0.0 0.00 0.00 0.03 86 1003.6
20260905053015 14 273 0.0 0.0 0.00 0.00 0.03 86 1003.6
20260905051527 14 245 1.6 0.0 0.00 0.00 0.03 86 1003.5
20260905050014 14 257 0.0 0.0 0.00 0.00 0.03 86 1003.3
20260905044511 14 236 0.0 0.0 0.00 0.00 0.03 85 1003.0
20260905043014 14 252 1.6 0.0 0.00 0.00 0.03 85 1002.8